Tracking 34305 objects as of 7-Jun-2026
HD Live streaming from Space Station
objects crossing your sky now

STARLINK-5193

Track STARLINK-5193 now!
10-day predictions
STARLINK-5193 is classified as:


NORAD ID: 54095
Int'l Code: 2022-136AW
Perigee: 546.0 km
Apogee: 547.8 km
Inclination: 53.2 °
Period: 95.4 minutes
Semi major axis: 6917 km
RCS: Unknown
Launch date: October 20, 2022
Source: United States (US)
Launch site: AIR FORCE EASTERN TEST RANGE (AFETR)
Your satellite tracking list
Your tracking list is empty




NASA's NSSDC Master Catalog

Two Line Element Set (TLE):
1 54095U 22136AW  26158.08032248 -.00000253  00000-0  22258-5 0  9991
2 54095  53.1734 292.4655 0001257  97.6073 262.5061 15.08829608200481
Source of the keplerian elements: AFSPC